Volver al catálogo

SL-8 R/B

ActivoPO
NORAD 8326·ROCKET BODY·🇷🇺 Russia

Lanzado Sep 24, 1975 desde Plesetsk Cosmodrome

Loading…

Próximos Pases (próximas 24 horas)

TLE

ActualizadoSource: Space-Track

Época: Sep 14, 2026, 00:54 UTC

1 08326U 75089B   26257.03750691 -.00000059  00000-0 -17466-3 0  9994
2 08326  82.9516 269.8623 0025285  87.4398 301.2896 13.21674513458200

Sigue SL-8 R/B en tiempo real con AllMySat

Download on the App Store